Вернуться в каталог

COSMOS 1867 COOLANT

АктивенLEO
NORAD 39671·DEBRIS·🇷🇺 Russia

Запущен Jul 10, 1987 с Baikonur Cosmodrome

Loading…

Ближайшие Пролёты (ближайшие 24 часа)

TLE

СвежийSource: Space-Track

Эпоха: Sep 14, 2026, 20:42 UTC

1 39671U 87060AJ  26257.86304555  .00000178  00000-0  98528-4 0  9997
2 39671  65.0098 116.7612 0018985 280.4029  79.4917 14.34463542649514

Отслеживайте COSMOS 1867 COOLANT в реальном времени с AllMySat

Download on the App Store